FW9975 Weather Reports


time (UTC)temp
C
wind
direction
speed
KPH
gust
KPH
rain 1hr
cm
rain 24hr
cm
rain mn
cm
humidity
%
barometer
mb
20260507155557 13 301 1.6 4.8 0.00 0.00 0.00 41 1012.9
20260507155055 13 339 8.0 11.3 0.00 0.00 0.00 38 1012.8
20260507154552 13 326 4.8 8.0 0.00 0.00 0.00 42 1013.2
20260507154049 13 313 9.7 12.9 0.00 0.00 0.00 40 1012.8
20260507153546 13 334 3.2 9.7 0.00 0.00 0.00 40 1013.0
20260507153042 12 356 9.7 11.3 0.00 0.00 0.00 40 1012.8
20260507152538 13 334 4.8 11.3 0.00 0.00 0.00 40 1012.9
20260507152034 13 297 1.6 8.0 0.00 0.00 0.00 40 1012.9
20260507151530 13 333 1.6 4.8 0.00 0.00 0.00 40 1012.7
20260507151028 12 17 4.8 8.0 0.00 0.00 0.00 39 1013.0
20260507150525 12 263 6.4 9.7 0.00 0.00 0.00 39 1013.1
20260507150021 13 341 3.2 8.0 0.00 0.00 0.00 44 1013.0
20260507145516 12 336 4.8 9.7 0.00 0.00 0.00 42 1012.8
20260507145015 12 342 4.8 4.8 0.00 0.00 0.00 41 1012.8
20260507144510 12 309 8.0 11.3 0.00 0.00 0.00 42 1012.8
20260507144008 12 308 0.0 3.2 0.00 0.00 0.00 42 1013.0
20260507143505 12 296 0.0 4.8 0.00 0.00 0.00 45 1013.0
20260507143002 12 342 3.2 4.8 0.00 0.00 0.00 42 1013.1
20260507142458 12 337 4.8 4.8 0.00 0.00 0.00 42 1013.0
20260507141955 12 330 4.8 8.0 0.00 0.00 0.00 42 1012.9
20260507141451 12 332 4.8 4.8 0.00 0.00 0.00 43 1013.1
20260507140948 11 320 1.6 4.8 0.00 0.00 0.00 43 1013.1
20260507140444 12 344 4.8 9.7 0.00 0.00 0.00 43 1013.1
20260507135942 11 300 0.0 3.2 0.00 0.00 0.00 48 1013.3
20260507135438 11 329 1.6 9.7 0.00 0.00 0.00 42 1013.3
20260507134936 11 314 4.8 4.8 0.00 0.00 0.00 43 1013.1
20260507134433 11 304 3.2 4.8 0.00 0.00 0.00 45 1013.1
20260507133929 11 332 3.2 3.2 0.00 0.00 0.00 47 1013.3
20260507133425 11 281 0.0 4.8 0.00 0.00 0.00 49 1013.2
20260507132923 11 335 4.8 9.7 0.00 0.00 0.00 47 1013.4
20260507132419 11 344 1.6 3.2 0.00 0.00 0.00 51 1013.3
20260507131916 11 329 1.6 9.7 0.00 0.00 0.00 51 1013.1
20260507131413 10 314 3.2 4.8 0.00 0.00 0.00 54 1013.3
20260507130910 10 305 1.6 4.8 0.00 0.00 0.00 55 1013.1
20260507130407 10 306 4.8 4.8 0.00 0.00 0.00 55 1013.4
20260507125906 10 317 3.2 4.8 0.00 0.00 0.00 56 1013.2
20260507125403 10 299 3.2 4.8 0.00 0.00 0.00 57 1013.0
20260507124900 10 312 3.2 4.8 0.00 0.00 0.00 59 1013.3
20260507124356 10 321 1.6 3.2 0.00 0.00 0.00 60 1013.4
20260507123855 10 310 1.6 1.6 0.00 0.00 0.00 61 1013.4
20260507123351 10 299 0.0 1.6 0.00 0.00 0.00 63 1013.5
20260507122848 9 288 0.0 8.0 0.00 0.00 0.00 65 1013.2
20260507122343 9 301 3.2 3.2 0.00 0.00 0.00 64 1013.2
20260507121840 8 289 0.0 8.0 0.00 0.00 0.00 66 1013.5
20260507121335 8 311 1.6 1.6 0.00 0.00 0.00 68 1013.4
20260507120832 8 293 1.6 1.6 0.00 0.00 0.00 75 1013.3
20260507120328 7 308 0.0 3.2 0.00 0.00 0.00 83 1013.3
20260507115825 6 309 0.0 3.2 0.00 0.00 0.00 91 1013.2
20260507115320 6 304 0.0 1.6 0.00 0.00 0.00 95 1013.7
20260507114816 5 306 0.0 3.2 0.00 0.00 0.00 96 1013.2
20260507114314 6 310 0.0 3.2 0.00 0.00 0.00 96 1013.4
20260507113811 6 308 0.0 0.0 0.00 0.00 0.00 97 1013.5
20260507113308 5 308 0.0 0.0 0.00 0.00 0.00 97 1013.2
20260507112806 5 308 0.0 0.0 0.00 0.00 0.00 97 1013.4
20260507112306 5 308 0.0 0.0 0.00 0.00 0.00 97 1013.2
20260507111800 5 308 0.0 0.0 0.00 0.00 0.00 97 1013.3
20260507111256 5 308 0.0 0.0 0.00 0.00 0.00 97 1013.2
20260507110752 5 308 0.0 0.0 0.00 0.00 0.00 97 1013.0
20260507110249 4 308 0.0 0.0 0.00 0.00 0.00 97 1013.1
20260507105746 4 308 0.0 0.0 0.00 0.00 0.00 97 1012.8
20260507105242 4 308 0.0 0.0 0.00 0.00 0.00 97 1012.6
20260507104740 4 308 0.0 0.0 0.00 0.00 0.00 97 1012.9
20260507104236 4 308 0.0 0.0 0.00 0.00 0.00 97 1012.8
20260507103732 4 308 0.0 0.0 0.00 0.00 0.00 97 1012.8
20260507103229 4 308 0.0 0.0 0.00 0.00 0.00 97 1012.8
20260507102725 4 308 0.0 0.0 0.00 0.00 0.00 97 1012.7
20260507102221 4 308 0.0 0.0 0.00 0.00 0.00 97 1012.7
20260507101718 4 308 0.0 0.0 0.00 0.00 0.00 97 1012.6
20260507101213 4 308 0.0 0.0 0.00 0.00 0.00 97 1012.8
20260507100710 5 308 0.0 0.0 0.00 0.00 0.00 97 1012.8
20260507100209 4 308 0.0 0.0 0.00 0.00 0.00 96 1012.7
20260507095707 4 308 0.0 0.0 0.00 0.00 0.00 97 1012.7
20260507095203 4 308 0.0 0.0 0.00 0.00 0.00 96 1012.5
20260507094700 4 308 0.0 0.0 0.00 0.00 0.00 96 1012.7
20260507094156 4 308 0.0 0.0 0.00 0.00 0.00 96 1012.8
20260507093653 4 308 0.0 0.0 0.00 0.00 0.00 96 1012.5
20260507093152 5 308 0.0 0.0 0.00 0.00 0.00 96 1012.5
20260507092649 5 308 0.0 0.0 0.00 0.00 0.00 96 1012.4
20260507092145 5 308 0.0 0.0 0.00 0.00 0.00 96 1012.4
20260507091642 5 308 0.0 0.0 0.00 0.00 0.00 96 1012.5
20260507091138 5 308 0.0 0.0 0.00 0.00 0.00 96 1012.5
20260507090634 5 308 0.0 0.0 0.00 0.00 0.00 96 1012.5
20260507090131 5 308 0.0 0.0 0.00 0.00 0.00 96 1012.6
20260507085628 5 308 0.0 0.0 0.00 0.00 0.00 96 1012.5
20260507085125 5 308 0.0 0.0 0.00 0.00 0.00 96 1012.4
20260507084621 5 308 0.0 0.0 0.00 0.00 0.00 96 1012.3
20260507084118 5 308 0.0 0.0 0.00 0.00 0.00 96 1012.3
20260507083615 5 308 0.0 0.0 0.00 0.00 0.00 95 1012.3
20260507083112 5 308 0.0 0.0 0.00 0.00 0.00 95 1012.3
20260507082608 5 308 0.0 0.0 0.00 0.00 0.00 95 1012.0
20260507082104 5 308 0.0 0.0 0.00 0.00 0.00 95 1012.0
20260507081600 5 308 0.0 0.0 0.00 0.00 0.00 95 1012.2
20260507081058 5 308 0.0 0.0 0.00 0.00 0.00 95 1012.2
20260507080554 5 308 0.0 0.0 0.00 0.00 0.00 95 1012.1
20260507080050 5 308 0.0 0.0 0.00 0.00 0.00 95 1012.2
20260507075545 5 308 0.0 0.0 0.00 0.00 0.00 95 1011.9
20260507075042 5 308 0.0 0.0 0.00 0.00 0.00 95 1012.2
20260507074538 5 308 0.0 0.0 0.00 0.00 0.00 95 1012.0
20260507074037 5 308 0.0 0.0 0.00 0.00 0.00 95 1012.0
20260507073533 6 308 0.0 0.0 0.00 0.00 0.00 95 1012.0
20260507073030 6 308 0.0 0.0 0.00 0.00 0.00 95 1012.0
20260507072527 6 308 0.0 0.0 0.00 0.00 0.00 94 1012.0
20260507072024 6 308 0.0 0.0 0.00 0.00 0.00 94 1012.1
20260507071522 6 308 0.0 0.0 0.00 0.00 0.00 94 1011.8
20260507071018 6 308 0.0 0.0 0.00 0.00 0.00 94 1012.0
20260507070515 6 308 0.0 0.0 0.00 0.00 0.00 94 1011.9
20260507070013 6 308 0.0 0.0 0.00 0.00 0.00 94 1012.0
20260507065508 6 308 0.0 0.0 0.00 0.00 0.00 94 1012.0
20260507065006 6 308 0.0 0.0 0.00 0.00 0.00 94 1012.0
20260507064504 6 308 0.0 0.0 0.00 0.00 0.00 93 1012.0
20260507064002 6 308 0.0 0.0 0.00 0.00 0.00 93 1012.1
20260507063458 6 308 0.0 0.0 0.00 0.00 0.00 93 1012.2
20260507062956 6 308 0.0 0.0 0.00 0.00 0.00 93 1012.4
20260507062452 6 308 0.0 0.0 0.00 0.00 0.00 93 1012.4
20260507061950 6 308 0.0 0.0 0.00 0.00 0.00 93 1012.1
20260507061448 6 308 0.0 0.0 0.00 0.00 0.00 92 1012.1
20260507060946 6 308 0.0 0.0 0.00 0.00 0.00 92 1012.1
20260507060442 6 308 0.0 0.0 0.00 0.00 0.00 92 1012.1
20260507055939 6 308 0.0 0.0 0.00 0.00 0.00 92 1012.2
20260507055434 6 308 0.0 0.0 0.00 0.00 0.00 92 1012.0
20260507054931 6 308 0.0 0.0 0.00 0.00 0.00 91 1012.1
20260507054427 6 308 0.0 0.0 0.00 0.00 0.00 91 1012.3
20260507053925 7 308 0.0 0.0 0.00 0.00 0.00 91 1012.1
20260507053422 7 308 0.0 0.0 0.00 0.00 0.00 91 1012.2
20260507052921 7 308 0.0 0.0 0.00 0.00 0.00 91 1012.3
20260507052418 7 308 0.0 0.0 0.00 0.00 0.00 90 1012.2
20260507051915 7 308 0.0 0.0 0.00 0.00 0.00 90 1012.0
20260507051413 7 308 0.0 0.0 0.00 0.00 0.00 89 1012.1
20260507050909 7 308 0.0 0.0 0.00 0.00 0.00 89 1012.1
20260507050406 7 308 0.0 0.0 0.00 0.00 0.00 89 1012.3
20260507045903 7 308 0.0 0.0 0.00 0.00 0.00 89 1012.1
20260507045359 7 308 0.0 0.0 0.00 0.00 0.00 88 1012.2
20260507044856 7 308 0.0 0.0 0.00 0.00 0.00 88 1012.3
20260507044353 7 308 0.0 0.0 0.00 0.00 0.00 87 1012.3
20260507043849 7 308 0.0 0.0 0.00 0.00 0.00 87 1012.2
20260507043346 7 308 0.0 0.0 0.00 0.00 0.00 87 1012.4
20260507042842 7 308 0.0 0.0 0.00 0.00 0.00 87 1012.2
20260507042338 7 308 0.0 0.0 0.00 0.00 0.00 87 1012.3
20260507041835 7 308 0.0 0.0 0.00 0.00 0.00 86 1012.0
20260507041331 8 308 0.0 0.0 0.00 0.00 0.00 86 1012.1
20260507040829 8 308 0.0 0.0 0.00 0.00 0.00 85 1012.3
20260507040325 8 308 0.0 0.0 0.00 0.00 0.00 85 1012.3
20260507035821 8 308 0.0 0.0 0.00 1.02 1.02 85 1012.2
20260507035316 8 308 0.0 0.0 0.00 1.02 1.02 84 1012.0
20260507034814 8 308 0.0 0.0 0.00 1.02 1.02 84 1012.2
20260507034311 8 308 0.0 0.0 0.00 1.02 1.02 84 1012.1
20260507033809 8 308 0.0 0.0 0.00 1.02 1.02 84 1012.1
20260507033306 8 308 0.0 0.0 0.00 1.02 1.02 83 1012.0
20260507032803 8 308 0.0 0.0 0.00 1.02 1.02 82 1012.0
20260507032259 9 308 0.0 0.0 0.00 1.02 1.02 81 1012.0
20260507031756 9 308 0.0 0.0 0.00 1.02 1.02 79 1012.2
20260507031253 9 308 0.0 0.0 0.00 1.02 1.02 79 1012.1
20260507030749 9 308 0.0 0.0 0.00 1.02 1.02 78 1012.3
20260507030247 9 308 0.0 0.0 0.00 1.02 1.02 78 1012.1
20260507025744 10 308 0.0 0.0 0.00 1.02 1.02 78 1012.1
20260507025241 10 308 0.0 0.0 0.00 1.02 1.02 78 1012.3
20260507024739 10 308 0.0 0.0 0.00 1.02 1.02 76 1012.2
20260507024236 10 308 0.0 0.0 0.00 1.02 1.02 75 1012.0
20260507023732 10 308 0.0 0.0 0.00 1.02 1.02 74 1011.8
20260507023229 10 308 0.0 0.0 0.00 1.02 1.02 74 1012.0
20260507022726 10 308 0.0 0.0 0.00 1.02 1.02 74 1012.0
20260507022222 10 308 0.0 0.0 0.00 1.02 1.02 72 1011.8
20260507021719 10 308 0.0 0.0 0.00 1.02 1.02 70 1011.8
20260507021214 11 308 0.0 0.0 0.00 1.02 1.02 70 1012.0
20260507020713 11 308 0.0 0.0 0.00 1.02 1.02 69 1011.9
20260507020208 11 308 0.0 0.0 0.00 1.02 1.02 68 1011.8
20260507015707 11 308 0.0 0.0 0.00 1.02 1.02 66 1011.8
20260507015204 11 308 0.0 0.0 0.00 1.02 1.02 65 1011.6
20260507014700 11 308 0.0 0.0 0.00 1.02 1.02 64 1011.8
20260507014156 12 308 0.0 0.0 0.00 1.02 1.02 63 1011.8
20260507013653 12 308 0.0 0.0 0.00 1.02 1.02 62 1011.7
20260507013150 12 308 0.0 0.0 0.00 1.02 1.02 62 1011.5
20260507012648 12 308 0.0 0.0 0.00 1.02 1.02 61 1011.4
20260507012143 12 308 0.0 1.6 0.00 1.02 1.02 59 1011.5
20260507011641 12 308 0.0 1.6 0.00 1.02 1.02 59 1011.3
20260507011137 12 308 0.0 0.0 0.00 1.02 1.02 59 1011.1
20260507010632 13 308 0.0 1.6 0.00 1.02 1.02 58 1011.2
20260507010128 13 308 0.0 0.0 0.00 1.02 1.02 57 1011.2
20260507005626 13 308 0.0 1.6 0.00 1.02 1.02 58 1011.2
20260507005122 13 308 1.6 1.6 0.00 1.02 1.02 57 1011.1
20260507004619 13 311 0.0 3.2 0.00 1.02 1.02 57 1011.2
20260507004116 13 310 0.0 1.6 0.00 1.02 1.02 57 1011.2
20260507003612 13 310 0.0 3.2 0.00 1.02 1.02 58 1011.3
20260507003107 13 308 1.6 4.8 0.00 1.02 1.02 56 1011.1
20260507002604 13 315 1.6 4.8 0.00 1.02 1.02 56 1011.1
20260507002059 13 315 1.6 3.2 0.00 1.02 1.02 56 1011.1
20260507001557 13 324 3.2 4.8 0.00 1.02 1.02 55 1011.1
20260507001054 13 315 3.2 4.8 0.00 1.02 1.02 54 1011.1
20260507000550 13 322 3.2 4.8 0.00 1.02 1.02 54 1010.9
20260507000046 14 331 3.2 11.3 0.00 1.02 1.02 53 1010.9
20260506235544 14 322 1.6 8.0 0.00 1.02 1.02 52 1010.8
20260506235038 14 305 1.6 4.8 0.00 1.02 1.02 52 1010.9
20260506234536 14 282 0.0 9.7 0.00 1.02 1.02 52 1010.8
20260506234033 14 328 4.8 8.0 0.00 1.02 1.02 51 1010.5
20260506233530 14 330 3.2 9.7 0.00 1.02 1.02 52 1010.4
20260506233027 14 309 1.6 3.2 0.00 1.02 1.02 52 1010.7
20260506232523 14 338 1.6 8.0 0.00 1.02 1.02 51 1010.5
20260506232019 15 319 6.4 9.7 0.00 1.02 1.02 51 1010.6
20260506231517 15 317 3.2 9.7 0.00 1.02 1.02 51 1010.1
20260506231014 15 302 0.0 4.8 0.00 1.02 1.02 51 1010.2
20260506230510 15 325 4.8 4.8 0.00 1.02 1.02 52 1010.0
20260506230008 15 333 4.8 8.0 0.00 1.02 1.02 52 1010.4
20260506225504 15 313 0.0 3.2 0.00 1.02 1.02 54 1010.3
20260506225001 15 331 1.6 3.2 0.00 1.02 1.02 53 1010.5
20260506224458 15 285 1.6 4.8 0.00 1.02 1.02 51 1010.2
20260506223954 15 340 4.8 4.8 0.00 1.02 1.02 52 1010.3
20260506223450 15 17 4.8 4.8 0.00 1.02 1.02 51 1010.7
20260506222948 15 322 1.6 3.2 0.00 1.02 1.02 51 1010.6
20260506222444 15 348 4.8 8.0 0.00 1.02 1.02 50 1010.5
20260506221941 15 313 1.6 3.2 0.00 1.02 1.02 49 1010.7
20260506221438 15 299 0.0 1.6 0.00 1.02 1.02 50 1010.8
20260506220936 15 297 1.6 3.2 0.00 1.02 1.02 50 1010.8
20260506220431 15 313 3.2 3.2 0.00 1.02 1.02 51 1010.9
20260506215928 15 321 1.6 4.8 0.00 1.02 1.02 51 1010.8
20260506215424 15 305 0.0 1.6 0.00 1.02 1.02 51 1010.6
20260506214920 15 351 6.4 8.0 0.00 1.02 1.02 50 1010.5
20260506214417 15 300 3.2 4.8 0.00 1.02 1.02 51 1010.7
20260506213915 15 310 1.6 4.8 0.00 1.02 1.02 51 1010.9
20260506213412 15 332 3.2 9.7 0.00 1.02 1.02 50 1010.5
20260506212910 15 312 4.8 4.8 0.00 1.02 1.02 49 1010.5
20260506212405 15 317 1.6 4.8 0.00 1.02 1.02 49 1010.5
20260506211900 15 348 3.2 4.8 0.00 1.02 1.02 49 1010.7
20260506211356 15 292 1.6 4.8 0.00 1.02 1.02 49 1010.4
20260506210854 15 329 4.8 4.8 0.00 1.02 1.02 49 1010.4
20260506210350 15 328 4.8 8.0 0.00 1.02 1.02 48 1010.0
20260506205848 15 299 0.0 0.0 0.00 1.02 1.02 49 1010.2
20260506205343 15 315 3.2 4.8 0.00 1.02 1.02 49 1010.2
20260506204840 15 310 4.8 12.9 0.00 1.02 1.02 49 1010.1
20260506204338 15 299 3.2 4.8 0.00 1.02 1.02 47 1010.3
20260506203835 15 330 8.0 9.7 0.00 1.02 1.02 48 1010.2
20260506203332 15 322 1.6 4.8 0.00 1.02 1.02 48 1010.6
20260506202829 15 285 0.0 3.2 0.00 1.02 1.02 49 1010.3
20260506202326 15 323 1.6 3.2 0.00 1.02 1.02 48 1010.5
20260506201822 15 315 1.6 3.2 0.00 1.02 1.02 46 1010.2
20260506201320 15 301 0.0 3.2 0.00 1.02 1.02 50 1010.3
20260506200817 15 19 4.8 8.0 0.00 1.02 1.02 48 1010.4
20260506200313 15 335 3.2 3.2 0.00 1.02 1.02 48 1010.4
20260506195809 15 306 1.6 3.2 0.00 1.02 1.02 50 1010.4
20260506195306 15 273 1.6 3.2 0.00 1.02 1.02 48 1010.5
20260506194804 15 347 4.8 4.8 0.00 1.02 1.02 47 1010.3
20260506194300 15 328 1.6 4.8 0.00 1.02 1.02 46 1010.4
20260506193758 15 327 8.0 9.7 0.00 1.02 1.02 47 1010.3
20260506193254 15 340 3.2 4.8 0.00 1.02 1.02 48 1010.4
20260506192750 15 303 4.8 8.0 0.00 1.02 1.02 45 1010.3
20260506192247 15 311 3.2 4.8 0.00 1.02 1.02 46 1009.9
20260506191744 15 320 3.2 8.0 0.00 1.02 1.02 46 1010.2
20260506191240 15 307 1.6 9.7 0.00 1.02 1.02 46 1010.1
20260506190738 16 327 4.8 4.8 0.00 1.02 1.02 47 1010.1
20260506190234 15 305 1.6 9.7 0.00 1.02 1.02 47 1010.1
20260506185731 16 334 4.8 4.8 0.00 1.02 1.02 50 1010.0
20260506185228 16 310 1.6 3.2 0.00 1.02 1.02 49 1009.9
20260506184725 16 303 1.6 8.0 0.00 1.02 1.02 49 1010.1
20260506184222 16 339 3.2 4.8 0.00 1.02 1.02 48 1010.1
20260506183719 15 313 0.0 4.8 0.00 1.02 1.02 49 1009.9
20260506183215 16 318 1.6 4.8 0.00 1.02 1.02 49 1010.0
20260506182712 16 321 1.6 8.0 0.00 1.02 1.02 47 1010.2
20260506182209 15 310 0.0 4.8 0.00 1.02 1.02 49 1010.1
20260506181707 15 355 3.2 4.8 0.00 1.02 1.02 53 1009.9
20260506181204 15 0 4.8 8.0 0.00 1.02 1.02 49 1010.2
20260506180701 15 315 3.2 11.3 0.00 1.02 1.02 51 1010.3
20260506180157 15 301 0.0 3.2 0.00 1.02 1.02 52 1010.5
20260506175653 15 343 4.8 8.0 0.00 1.02 1.02 51 1010.4
20260506175151 15 275 0.0 1.6 0.00 1.02 1.02 52 1010.1
20260506174649 14 339 6.4 8.0 0.00 1.02 1.02 49 1010.7
20260506174145 15 19 4.8 8.0 0.00 1.02 1.02 52 1010.5
20260506173643 14 308 1.6 1.6 0.00 1.02 1.02 51 1010.5
20260506173134 14 331 4.8 9.7 0.00 1.02 1.02 53 1010.6
20260506172631 14 296 0.0 4.8 0.00 1.02 1.02 53 1010.6
20260506172127 15 339 3.2 8.0 0.00 1.02 1.02 51 1010.7
20260506171625 15 309 1.6 8.0 0.00 1.02 1.02 54 1010.8
20260506171122 14 325 3.2 3.2 0.00 1.02 1.02 53 1010.7
20260506170619 14 330 3.2 8.0 0.00 1.02 1.02 52 1011.0
20260506170111 14 330 3.2 9.7 0.00 1.02 1.02 53 1010.7
20260506165610 14 322 8.0 11.3 0.00 1.02 1.02 54 1010.9
20260506165105 14 342 4.8 11.3 0.00 1.02 1.02 54 1010.9
20260506164603 15 298 0.0 3.2 0.00 1.02 1.02 54 1010.9
20260506164100 14 313 1.6 4.8 0.00 1.02 1.02 55 1010.8
20260506163555 14 342 3.2 9.7 0.00 1.02 1.02 55 1010.8
20260506163052 13 324 8.0 9.7 0.00 1.02 1.02 56 1010.6
20260506162548 13 342 4.8 4.8 0.00 1.02 1.02 58 1010.8
20260506162045 13 352 6.4 8.0 0.00 1.02 1.02 57 1010.9
20260506161543 13 315 6.4 11.3 0.00 1.02 1.02 57 1010.7
20260506161039 13 280 0.0 3.2 0.00 1.02 1.02 61 1010.8
20260506160537 13 268 1.6 4.8 0.00 1.02 1.02 60 1010.7